sat.trackr.live / text

‹ back to catalog

STARLINK-37435

NORAD 69265 · 2026-117AD

PAYLOAD ACTIVE UNKNOWN

§ Identity

Operator
Country
US
Launch date
2026-05-29
Launch site
AFETR
Launch vehicle
Mass (kg)
RCS (m²)

Purposes: comms

External: N2YO · Heavens-Above · Gunter

§ Orbital elements

Epoch: 2026-09-19T23:10:37.392384Z

Period
93.85 min
Inclination
53.1583°
Eccentricity
0.0001022
Mean motion
15.34403396 rev/d
Perigee alt
462.0 km
Apogee alt
463.4 km
Semi-major
6,840.8 km
B*
5.0823e-4
RAAN
156.3185°
Arg perigee
82.6261°
Mean anomaly
277.4858°
Rev number
1,758

§ Raw data

STARLINK-374351 69265U 26117AD  26262.96571056  .00016836  00000+0  50823-3 0  99962 69265  53.1583 156.3185 0001022  82.6261 277.4858 15.34403396 17584

JSON: /api/v1/satellites/69265 · /tle

For live sub-satellite position, see the globe view (requires WebGL).

§ Visibility from observer

Set your observer location to see the next 7 days of passes ≥ 10°. The values pass through the URL so the page stays shareable.

No JS? Fill the form by hand. The geolocation button needs JavaScript.